Location: Drocourt
(49.0571°N, 1.7669°E)
Time: 19:40:54
(UTC+00:00)

Transit 4A - Pass Details

Date: 16 April 2024
Orbit: 871 x 971 km, 66.8° (Epoch: 18 May)

Event Time Altitude Azimuth Distance (km) Brightness Sun altitude
Rises 16:16:55 0° 273° (W) 3,512 12.2 23.5°
Reaches altitude 10° 16:20:12 10° 291° (WNW) 2,558 11.3 23.0°
Maximum altitude 16:24:22 19° 336° (NNW) 1,963 9.9 22.3°
Drops below altitude 10° 16:28:29 10° 21° (NNE) 2,536 10.0 21.6°
Sets 16:31:44 0° 39° (NE) 3,471 10.5 21.1°
